Year,Month,Day,Hour,Minute,Value (Times are PST for windspeed in km/hr)
2013,09,30,00,00,11.80
2013,09,30,00,01,11.90
2013,09,30,00,02,8.00
2013,09,30,00,03,10.50
2013,09,30,00,04,17.40
2013,09,30,00,05,11.20
2013,09,30,00,06,8.90
2013,09,30,00,07,10.10
2013,09,30,00,08,9.00
2013,09,30,00,09,11.10
2013,09,30,00,10,11.50
2013,09,30,00,11,12.60
2013,09,30,00,12,16.60
2013,09,30,00,17,9.70
2013,09,30,00,18,17.70
2013,09,30,00,19,12.00
2013,09,30,00,20,6.20
2013,09,30,00,21,7.30
2013,09,30,00,22,12.20
2013,09,30,00,23,13.20
2013,09,30,00,24,8.90
2013,09,30,00,25,12.00
2013,09,30,00,26,12.30
2013,09,30,00,27,5.60
2013,09,30,00,28,10.70
2013,09,30,00,29,13.50
2013,09,30,00,30,13.40
2013,09,30,00,31,17.80
2013,09,30,00,32,27.40
2013,09,30,00,33,15.80
2013,09,30,00,34,13.90
2013,09,30,00,35,6.20
2013,09,30,00,36,8.70
2013,09,30,00,37,15.90
2013,09,30,00,38,4.50
2013,09,30,00,39,5.10
2013,09,30,00,40,6.50
2013,09,30,00,41,6.00
2013,09,30,00,42,7.20
2013,09,30,00,43,8.10
2013,09,30,00,44,6.40
2013,09,30,00,45,7.90
2013,09,30,00,46,13.60
2013,09,30,00,47,3.20
2013,09,30,00,48,3.80
2013,09,30,00,49,5.80
2013,09,30,00,50,6.40
2013,09,30,00,51,8.00
2013,09,30,00,52,13.20
2013,09,30,00,53,8.00
2013,09,30,00,54,5.10
2013,09,30,00,55,7.00
2013,09,30,00,56,10.50
2013,09,30,00,57,11.40
2013,09,30,00,58,12.30
2013,09,30,00,59,9.10
2013,09,30,01,00,9.00
2013,09,30,01,01,4.80
2013,09,30,01,02,4.10
2013,09,30,01,03,8.80
2013,09,30,01,04,5.50
2013,09,30,01,05,6.10
2013,09,30,01,06,4.90
2013,09,30,01,07,7.60
2013,09,30,01,08,1.80
2013,09,30,01,09,1.40
2013,09,30,01,10,3.50
2013,09,30,01,11,2.40
2013,09,30,01,12,6.10
2013,09,30,01,13,4.30
2013,09,30,01,14,7.20
2013,09,30,01,15,3.90
2013,09,30,01,16,2.80
2013,09,30,01,17,7.50
2013,09,30,01,18,5.60
2013,09,30,01,19,10.70
2013,09,30,01,20,11.20
2013,09,30,01,21,9.50
2013,09,30,01,22,10.50
2013,09,30,01,23,11.00
2013,09,30,01,24,30.20
2013,09,30,01,25,13.00
2013,09,30,01,26,12.60
2013,09,30,01,27,14.70
2013,09,30,01,28,5.40
2013,09,30,01,29,8.90
2013,09,30,01,30,5.90
2013,09,30,01,31,9.70
2013,09,30,01,32,2.60
2013,09,30,01,33,1.10
2013,09,30,01,34,8.90
2013,09,30,01,35,9.50
2013,09,30,01,36,5.00
2013,09,30,01,37,9.80
2013,09,30,01,38,6.20
2013,09,30,01,39,2.60
2013,09,30,01,40,5.30
2013,09,30,01,41,11.40
2013,09,30,01,42,7.40
2013,09,30,01,43,7.20
2013,09,30,01,44,8.50
2013,09,30,01,45,8.40
2013,09,30,01,46,3.50
2013,09,30,01,47,9.40
2013,09,30,01,48,2.00
2013,09,30,01,49,3.20
2013,09,30,01,50,3.10
2013,09,30,01,51,4.30
2013,09,30,01,52,2.30
2013,09,30,01,53,6.20
2013,09,30,01,54,3.30
2013,09,30,01,55,2.10
2013,09,30,01,56,2.60
2013,09,30,01,57,0.20
2013,09,30,01,58,0.90
2013,09,30,01,59,3.40
2013,09,30,02,00,0.50
2013,09,30,02,01,0.50
2013,09,30,02,02,0.20
2013,09,30,02,03,2.70
2013,09,30,02,04,7.30
2013,09,30,02,05,8.10
2013,09,30,02,06,8.00
2013,09,30,02,07,8.60
2013,09,30,02,08,8.50
2013,09,30,02,09,10.20
2013,09,30,02,10,6.80
2013,09,30,02,11,13.00
2013,09,30,02,12,16.10
2013,09,30,02,13,7.70
2013,09,30,02,14,13.00
2013,09,30,02,15,10.60
2013,09,30,02,16,18.40
2013,09,30,02,17,12.20
2013,09,30,02,18,16.30
2013,09,30,02,19,8.50
2013,09,30,02,20,12.10
2013,09,30,02,21,10.60
2013,09,30,02,22,4.30
2013,09,30,02,23,8.90
2013,09,30,02,24,6.00
2013,09,30,02,25,9.10
2013,09,30,02,26,11.40
2013,09,30,02,27,9.90
2013,09,30,02,28,5.10
2013,09,30,02,29,4.10
2013,09,30,02,30,13.80
2013,09,30,02,31,5.40
2013,09,30,02,32,4.80
2013,09,30,02,33,4.40
2013,09,30,02,34,3.70
2013,09,30,02,35,5.10
2013,09,30,02,36,5.00
2013,09,30,02,37,7.00
2013,09,30,02,38,4.80
2013,09,30,02,39,3.10
2013,09,30,02,40,8.90
2013,09,30,02,41,12.50
2013,09,30,02,42,6.90
2013,09,30,02,43,5.50
2013,09,30,02,44,5.00
2013,09,30,02,45,5.60
2013,09,30,02,46,6.00
2013,09,30,02,47,3.10
2013,09,30,02,48,7.80
2013,09,30,02,49,6.40
2013,09,30,02,50,9.90
2013,09,30,02,51,10.90
2013,09,30,02,52,5.50
2013,09,30,02,53,13.90
2013,09,30,02,54,5.70
2013,09,30,02,55,4.70
2013,09,30,02,56,3.50
2013,09,30,02,57,4.70
2013,09,30,02,58,14.90
2013,09,30,02,59,7.20
2013,09,30,03,00,4.60
2013,09,30,03,01,7.00
2013,09,30,03,02,4.70
2013,09,30,03,03,2.30
2013,09,30,03,04,4.90
2013,09,30,03,05,3.80
2013,09,30,03,06,10.20
2013,09,30,03,07,4.30
2013,09,30,03,08,4.70
2013,09,30,03,09,7.60
2013,09,30,03,10,1.20
2013,09,30,03,11,5.30
2013,09,30,03,12,5.60
2013,09,30,03,13,10.50
2013,09,30,03,14,4.70
2013,09,30,03,15,2.60
2013,09,30,03,16,2.30
2013,09,30,03,17,12.70
2013,09,30,03,18,13.10
2013,09,30,03,19,13.10
2013,09,30,03,20,9.00
2013,09,30,03,21,6.20
2013,09,30,03,22,8.50
2013,09,30,03,23,13.00
2013,09,30,03,24,16.80
2013,09,30,03,25,9.30
2013,09,30,03,26,6.00
2013,09,30,03,27,3.60
2013,09,30,03,28,3.90
2013,09,30,03,29,7.00
2013,09,30,03,30,8.40
2013,09,30,03,31,8.80
2013,09,30,06,51,2.80
2013,09,30,06,52,1.60
2013,09,30,06,53,3.30
2013,09,30,06,54,4.70
2013,09,30,06,55,6.30
2013,09,30,06,56,3.50
2013,09,30,06,57,3.10
2013,09,30,06,58,5.20
2013,09,30,06,59,2.70
2013,09,30,07,00,1.40
2013,09,30,07,01,0.20
2013,09,30,07,02,4.40
2013,09,30,07,03,2.80
2013,09,30,07,04,2.30
2013,09,30,07,05,4.20
2013,09,30,07,06,2.90
2013,09,30,07,07,1.90
2013,09,30,07,08,4.60
2013,09,30,07,09,4.20
2013,09,30,07,10,7.20
2013,09,30,07,11,5.00
2013,09,30,07,12,4.00
2013,09,30,07,13,4.70
2013,09,30,07,14,3.90
2013,09,30,07,15,8.50
2013,09,30,07,16,5.20
2013,09,30,07,17,8.70
2013,09,30,07,18,9.60
2013,09,30,07,19,10.10
2013,09,30,07,20,8.40
2013,09,30,07,21,10.20
2013,09,30,07,22,11.30
2013,09,30,07,23,12.60
2013,09,30,07,24,5.10
2013,09,30,07,25,11.50
2013,09,30,07,26,9.90
2013,09,30,07,27,9.70
2013,09,30,07,28,9.10
2013,09,30,07,29,6.90
2013,09,30,07,30,10.60
2013,09,30,07,31,5.10
2013,09,30,07,32,4.70
2013,09,30,07,33,3.10
2013,09,30,07,34,7.00
2013,09,30,07,35,3.70
2013,09,30,07,36,4.70
2013,09,30,07,37,4.10
2013,09,30,07,38,4.80
2013,09,30,07,39,7.80
2013,09,30,07,40,3.80
2013,09,30,07,41,3.40
2013,09,30,07,42,3.60
2013,09,30,07,43,2.70
2013,09,30,07,44,4.10
2013,09,30,07,45,6.80
2013,09,30,07,46,0.90
2013,09,30,07,47,0.30
2013,09,30,07,48,3.50
2013,09,30,07,49,0.70
2013,09,30,07,50,0.20
2013,09,30,07,51,0.10
2013,09,30,07,52,2.70
2013,09,30,07,53,3.40
2013,09,30,07,54,0.50
2013,09,30,07,55,0.60
2013,09,30,07,56,0.60
2013,09,30,07,57,0.20
2013,09,30,07,58,2.30
2013,09,30,07,59,1.10
2013,09,30,08,00,3.10
2013,09,30,08,01,3.90
2013,09,30,08,02,1.70
2013,09,30,08,03,0.50
2013,09,30,08,04,2.60
2013,09,30,08,05,1.80
2013,09,30,08,06,1.80
2013,09,30,08,07,3.70
2013,09,30,08,08,0.40
2013,09,30,08,09,0.10
2013,09,30,08,10,1.40
2013,09,30,08,11,0.40
2013,09,30,08,12,3.90
2013,09,30,08,13,2.40
2013,09,30,08,14,7.50
2013,09,30,08,15,3.50
2013,09,30,08,16,3.70
2013,09,30,08,17,1.40
2013,09,30,08,18,3.60
2013,09,30,08,19,4.50
2013,09,30,08,20,0.90
2013,09,30,08,21,1.60
2013,09,30,08,22,1.00
2013,09,30,08,23,1.40
2013,09,30,08,24,2.20
2013,09,30,08,25,3.30
2013,09,30,08,26,3.10
2013,09,30,08,27,5.30
2013,09,30,08,28,4.60
2013,09,30,08,29,3.50
2013,09,30,08,30,3.20
2013,09,30,08,31,3.50
2013,09,30,08,32,4.70
2013,09,30,08,33,2.30
2013,09,30,08,34,1.00
2013,09,30,08,35,6.80
2013,09,30,08,36,3.90
2013,09,30,08,37,3.90
2013,09,30,08,38,7.80
2013,09,30,08,39,5.10
2013,09,30,08,40,4.40
2013,09,30,08,41,5.10
2013,09,30,08,42,3.20
2013,09,30,08,43,1.10
2013,09,30,08,44,1.70
2013,09,30,08,45,3.20
2013,09,30,08,46,1.00
2013,09,30,08,47,1.20
2013,09,30,08,48,0.30
2013,09,30,08,49,1.70
2013,09,30,08,50,0.80
2013,09,30,08,51,0.40
2013,09,30,08,52,0.10
2013,09,30,08,53,0.00
2013,09,30,08,54,0.60
2013,09,30,08,55,1.20
2013,09,30,08,56,0.60
2013,09,30,08,57,2.10
2013,09,30,08,58,0.50
2013,09,30,08,59,0.00
2013,09,30,09,00,0.10
2013,09,30,09,01,0.00
2013,09,30,09,02,0.00
2013,09,30,09,03,0.00
2013,09,30,09,04,0.00
2013,09,30,09,05,0.10
2013,09,30,09,06,0.00
2013,09,30,09,07,0.00
2013,09,30,09,08,0.10
2013,09,30,09,09,0.20
2013,09,30,09,10,0.00
2013,09,30,09,11,0.00
2013,09,30,09,12,0.00
2013,09,30,09,13,0.90
2013,09,30,09,14,1.80
2013,09,30,09,15,1.30
2013,09,30,09,16,4.90
2013,09,30,09,17,1.00
2013,09,30,09,18,2.10
2013,09,30,09,19,3.00
2013,09,30,09,20,1.40
2013,09,30,09,21,0.60
2013,09,30,09,22,0.30
2013,09,30,09,23,0.40
2013,09,30,09,24,1.00
2013,09,30,09,25,0.10
2013,09,30,09,26,3.80
2013,09,30,09,27,3.60
2013,09,30,09,28,1.60
2013,09,30,09,29,0.60
2013,09,30,09,30,2.60
2013,09,30,09,31,1.10
2013,09,30,09,32,1.00
2013,09,30,09,33,1.40
2013,09,30,09,34,1.90
2013,09,30,09,35,3.20
2013,09,30,09,36,1.50
2013,09,30,09,37,1.40
2013,09,30,09,38,2.00
2013,09,30,09,39,1.10
2013,09,30,09,40,0.10
2013,09,30,09,41,0.00
2013,09,30,09,42,0.10
2013,09,30,09,43,1.50
2013,09,30,09,44,2.40
2013,09,30,09,45,2.70
2013,09,30,09,46,2.10
2013,09,30,09,47,0.60
2013,09,30,09,48,1.40
2013,09,30,09,49,0.10
2013,09,30,09,50,1.60
2013,09,30,09,51,3.10
2013,09,30,09,52,1.20
2013,09,30,09,53,4.30
2013,09,30,09,54,2.70
2013,09,30,09,55,3.20
2013,09,30,09,56,0.50
2013,09,30,09,57,3.30
2013,09,30,09,58,3.40
2013,09,30,09,59,3.90
2013,09,30,10,00,3.00
2013,09,30,10,01,4.90
2013,09,30,10,02,7.50
2013,09,30,10,03,0.90
2013,09,30,10,04,3.90
2013,09,30,10,05,9.50
2013,09,30,10,06,6.60
2013,09,30,10,07,1.50
2013,09,30,10,08,1.40
2013,09,30,10,09,4.30
2013,09,30,10,10,7.30
2013,09,30,10,11,6.60
2013,09,30,10,12,5.00
2013,09,30,10,13,4.30
2013,09,30,10,14,8.80
2013,09,30,10,15,6.20
2013,09,30,10,16,8.20
2013,09,30,10,17,9.30
2013,09,30,10,18,2.30
2013,09,30,10,19,3.10
2013,09,30,10,20,13.40
2013,09,30,10,21,10.30
2013,09,30,10,22,5.60
2013,09,30,10,23,4.40
2013,09,30,10,24,8.30
2013,09,30,10,25,2.60
2013,09,30,10,26,2.70
2013,09,30,10,27,1.90
2013,09,30,10,28,2.50
2013,09,30,10,29,8.90
2013,09,30,10,30,3.00
2013,09,30,10,31,3.10
2013,09,30,10,32,2.90
2013,09,30,10,33,2.10
2013,09,30,10,34,4.60
2013,09,30,10,35,3.70
2013,09,30,10,36,5.10
2013,09,30,10,37,5.00
2013,09,30,10,38,8.60
2013,09,30,10,39,6.40
2013,09,30,10,40,8.20
2013,09,30,10,41,4.70
2013,09,30,10,42,9.00
2013,09,30,10,43,12.60
2013,09,30,10,44,6.10
2013,09,30,10,45,7.60
2013,09,30,10,46,5.60
2013,09,30,10,47,6.50
2013,09,30,10,48,5.00
2013,09,30,10,49,9.50
2013,09,30,10,50,6.00
2013,09,30,10,51,7.60
2013,09,30,10,52,9.30
2013,09,30,10,53,4.60
2013,09,30,10,54,2.70
2013,09,30,10,55,4.10
2013,09,30,10,56,6.80
2013,09,30,10,57,2.30
2013,09,30,10,58,0.50
2013,09,30,10,59,0.10
2013,09,30,11,00,0.10
2013,09,30,11,01,0.70
2013,09,30,11,02,0.30
2013,09,30,11,03,0.20
2013,09,30,11,04,0.10
2013,09,30,11,05,0.00
2013,09,30,11,06,0.00
2013,09,30,11,07,2.30
2013,09,30,11,08,3.40
2013,09,30,11,09,3.30
2013,09,30,11,10,5.60
2013,09,30,11,11,6.00
2013,09,30,11,12,5.20
2013,09,30,11,13,5.50
2013,09,30,11,14,8.00
2013,09,30,11,15,7.30
2013,09,30,11,16,3.70
2013,09,30,11,17,3.10
2013,09,30,11,18,3.50
2013,09,30,11,19,3.30
2013,09,30,11,20,4.00
2013,09,30,11,21,3.40
2013,09,30,11,22,6.80
2013,09,30,11,23,6.80
2013,09,30,11,24,9.10
2013,09,30,11,25,7.90
2013,09,30,11,26,14.70
2013,09,30,11,27,10.30
2013,09,30,11,28,6.00
2013,09,30,11,29,3.90
2013,09,30,11,30,11.00
2013,09,30,11,31,17.40
2013,09,30,11,32,15.00
2013,09,30,11,33,3.80
2013,09,30,11,34,10.10
2013,09,30,11,35,6.00
2013,09,30,11,36,9.00
2013,09,30,11,37,3.50
2013,09,30,11,38,5.20
2013,09,30,11,39,4.10
2013,09,30,11,40,5.80
2013,09,30,11,41,2.60
2013,09,30,11,42,8.60
2013,09,30,11,43,14.00
2013,09,30,11,44,9.70
2013,09,30,11,45,10.00
2013,09,30,11,46,9.90
2013,09,30,11,47,14.00
2013,09,30,11,48,6.00
2013,09,30,11,49,11.50
2013,09,30,11,50,6.80
2013,09,30,11,51,8.10
2013,09,30,11,52,1.80
2013,09,30,11,53,6.40
2013,09,30,11,54,7.90
2013,09,30,11,55,1.20
2013,09,30,11,56,5.70
2013,09,30,11,57,6.80
2013,09,30,11,58,7.00
2013,09,30,11,59,11.30
2013,09,30,12,00,12.10
2013,09,30,12,01,10.10
2013,09,30,12,02,5.60
2013,09,30,12,03,13.30
2013,09,30,12,04,9.50
2013,09,30,12,05,8.10
2013,09,30,12,06,9.20
2013,09,30,12,07,5.20
2013,09,30,12,08,12.70
2013,09,30,12,09,11.80
2013,09,30,12,10,9.10
2013,09,30,12,11,10.60
2013,09,30,12,12,9.70
2013,09,30,12,13,10.90
2013,09,30,12,14,9.10
2013,09,30,12,15,8.40
2013,09,30,12,16,9.70
2013,09,30,12,17,7.00
2013,09,30,12,18,7.30
2013,09,30,12,19,7.50
2013,09,30,12,20,6.50
2013,09,30,12,21,4.10
2013,09,30,12,22,16.20
2013,09,30,12,23,19.70
2013,09,30,12,24,9.50
2013,09,30,12,25,8.60
2013,09,30,12,26,8.70
2013,09,30,12,27,10.50
2013,09,30,12,28,10.90
2013,09,30,12,29,7.60
2013,09,30,12,30,11.40
2013,09,30,12,31,9.60
2013,09,30,12,32,4.10
2013,09,30,12,33,7.50
2013,09,30,12,34,9.30
2013,09,30,12,35,7.90
2013,09,30,12,36,8.40
2013,09,30,12,37,7.90
2013,09,30,12,38,6.90
2013,09,30,12,39,10.10
2013,09,30,12,40,6.90
2013,09,30,12,41,5.90
2013,09,30,12,42,2.80
2013,09,30,12,43,4.90
2013,09,30,12,44,4.40
2013,09,30,12,45,5.60
2013,09,30,12,46,4.90
2013,09,30,12,47,1.50
2013,09,30,12,48,5.10
2013,09,30,12,49,4.40
2013,09,30,12,50,1.60
2013,09,30,12,51,1.40
2013,09,30,12,52,3.50
2013,09,30,12,53,4.30
2013,09,30,12,54,2.70
2013,09,30,12,55,4.00
2013,09,30,12,56,1.00
2013,09,30,12,57,0.10
2013,09,30,12,58,1.80
2013,09,30,12,59,0.70
2013,09,30,13,00,0.60
2013,09,30,13,01,1.90
2013,09,30,13,02,0.30
2013,09,30,13,03,0.20
2013,09,30,13,04,0.00
2013,09,30,13,05,0.10
2013,09,30,13,06,2.40
2013,09,30,13,07,0.50
2013,09,30,13,08,0.00
2013,09,30,13,09,0.10
2013,09,30,13,10,1.90
2013,09,30,13,11,1.30
2013,09,30,13,12,0.60
2013,09,30,13,13,0.00
2013,09,30,13,14,0.10
2013,09,30,13,15,1.50
2013,09,30,13,16,6.40
2013,09,30,13,17,6.80
2013,09,30,13,18,5.50
2013,09,30,13,19,8.40
2013,09,30,13,20,7.40
2013,09,30,13,21,7.80
2013,09,30,13,22,3.20
2013,09,30,13,23,2.20
2013,09,30,13,24,0.30
2013,09,30,13,25,6.50
2013,09,30,13,26,8.10
2013,09,30,13,27,5.60
2013,09,30,13,28,2.60
2013,09,30,13,29,6.00
2013,09,30,13,30,8.10
2013,09,30,13,31,6.40
2013,09,30,13,32,8.50
2013,09,30,13,33,4.40
2013,09,30,13,34,5.20
2013,09,30,13,35,3.30
2013,09,30,13,36,11.00
2013,09,30,13,37,1.10
2013,09,30,13,38,2.50
2013,09,30,13,39,3.70
2013,09,30,13,40,10.40
2013,09,30,13,41,11.10
2013,09,30,13,42,8.60
2013,09,30,13,43,5.20
2013,09,30,13,44,7.80
2013,09,30,13,45,5.30
2013,09,30,13,46,8.50
2013,09,30,13,47,8.80
2013,09,30,13,48,7.60
2013,09,30,13,49,6.60
2013,09,30,13,50,2.00
2013,09,30,13,51,2.10
2013,09,30,13,52,7.60
2013,09,30,13,53,8.40
2013,09,30,13,54,6.00
2013,09,30,13,55,7.20
2013,09,30,13,56,7.30
2013,09,30,13,57,4.40
2013,09,30,13,58,4.70
2013,09,30,13,59,6.00
2013,09,30,14,00,2.20
2013,09,30,14,01,10.20
2013,09,30,14,02,9.70
2013,09,30,14,03,6.40
2013,09,30,14,04,14.90
2013,09,30,14,05,9.20
2013,09,30,14,06,5.60
2013,09,30,14,07,4.90
2013,09,30,14,08,10.60
2013,09,30,14,09,9.70
2013,09,30,14,10,8.90
2013,09,30,14,11,10.20
2013,09,30,14,12,8.40
2013,09,30,14,13,13.40
2013,09,30,14,14,6.80
2013,09,30,14,15,11.70
2013,09,30,14,16,6.40
2013,09,30,14,17,3.80
2013,09,30,14,18,5.50
2013,09,30,14,19,7.60
2013,09,30,14,20,6.00
2013,09,30,14,21,3.70
2013,09,30,14,22,2.30
2013,09,30,14,23,5.10
2013,09,30,14,24,6.00
2013,09,30,14,25,2.10
2013,09,30,14,26,9.30
2013,09,30,14,27,10.40
2013,09,30,14,28,9.30
2013,09,30,14,29,8.50
2013,09,30,14,30,3.50
2013,09,30,14,31,5.10
2013,09,30,14,32,13.40
2013,09,30,14,33,8.90
2013,09,30,14,34,9.70
2013,09,30,14,35,5.60
2013,09,30,14,36,0.80
2013,09,30,14,37,3.10
2013,09,30,14,38,14.40
2013,09,30,14,39,9.30
2013,09,30,14,40,7.70
2013,09,30,14,41,3.10
2013,09,30,14,42,6.50
2013,09,30,14,43,14.50
2013,09,30,14,44,6.90
2013,09,30,14,45,8.70
2013,09,30,14,46,7.30
2013,09,30,14,47,6.90
2013,09,30,14,48,7.60
2013,09,30,14,49,15.30
2013,09,30,14,50,4.60
2013,09,30,14,51,6.40
2013,09,30,14,52,5.10
2013,09,30,14,53,4.00
2013,09,30,14,54,8.20
2013,09,30,14,55,8.50
2013,09,30,14,56,9.60
2013,09,30,14,57,10.00
2013,09,30,14,58,5.80
2013,09,30,14,59,5.40
2013,09,30,15,00,4.90
2013,09,30,15,01,9.50
2013,09,30,15,02,7.10
2013,09,30,15,03,8.20
2013,09,30,15,04,6.30
2013,09,30,15,05,11.00
2013,09,30,15,06,8.80
2013,09,30,15,07,5.50
2013,09,30,15,08,6.10
2013,09,30,15,09,10.50
2013,09,30,15,10,6.00
2013,09,30,15,11,10.90
2013,09,30,15,12,5.20
2013,09,30,15,13,11.70
2013,09,30,15,14,8.20
2013,09,30,15,15,8.10
2013,09,30,15,16,9.60
2013,09,30,15,17,3.90
2013,09,30,15,18,3.80
2013,09,30,15,19,6.60
2013,09,30,15,20,4.90
2013,09,30,15,21,6.50
2013,09,30,15,22,4.40
2013,09,30,15,23,3.20
2013,09,30,15,24,5.60
2013,09,30,15,25,7.90
2013,09,30,15,26,0.60
2013,09,30,15,27,9.00
2013,09,30,15,28,12.70
2013,09,30,15,29,5.40
2013,09,30,15,30,5.50
2013,09,30,15,31,7.10
2013,09,30,15,32,2.40
2013,09,30,15,33,7.60
2013,09,30,15,34,5.20
2013,09,30,15,35,5.00
2013,09,30,15,36,4.60
2013,09,30,15,37,7.50
2013,09,30,15,38,10.80
2013,09,30,15,39,3.10
2013,09,30,15,40,3.10
2013,09,30,15,41,6.10
2013,09,30,15,42,6.10
2013,09,30,15,43,3.60
2013,09,30,15,44,5.10
2013,09,30,15,45,1.70
2013,09,30,15,46,2.10
2013,09,30,15,47,4.80
2013,09,30,15,48,2.30
2013,09,30,15,49,9.30
2013,09,30,15,50,6.00
2013,09,30,15,51,6.20
2013,09,30,15,52,7.00
2013,09,30,15,53,7.10
2013,09,30,15,54,6.00
2013,09,30,15,55,4.50
2013,09,30,15,56,3.00
2013,09,30,15,57,0.40
2013,09,30,15,58,6.20
2013,09,30,15,59,6.50
2013,09,30,16,00,2.90
2013,09,30,16,01,2.00
2013,09,30,16,02,4.40
2013,09,30,16,03,4.50
2013,09,30,16,04,4.70
2013,09,30,16,05,2.00
2013,09,30,16,06,4.30
2013,09,30,16,07,0.90
2013,09,30,16,08,2.40
2013,09,30,16,09,1.20
2013,09,30,16,10,3.50
2013,09,30,16,11,1.80
2013,09,30,16,12,8.60
2013,09,30,16,13,5.10
2013,09,30,16,14,1.30
2013,09,30,16,15,3.10
2013,09,30,16,16,4.20
2013,09,30,16,17,5.10
2013,09,30,16,18,4.30
2013,09,30,16,19,6.70
2013,09,30,16,20,1.60
2013,09,30,16,21,7.60
2013,09,30,16,22,2.80
2013,09,30,16,23,2.30
2013,09,30,16,24,4.50
2013,09,30,16,25,5.60
2013,09,30,16,26,5.90
2013,09,30,16,27,6.60
2013,09,30,16,28,3.60
2013,09,30,16,29,5.10
2013,09,30,16,30,7.30
2013,09,30,16,31,1.40
2013,09,30,16,32,2.90
2013,09,30,16,33,8.40
2013,09,30,16,34,0.90
2013,09,30,16,35,0.50
2013,09,30,16,36,5.10
2013,09,30,16,37,8.50
2013,09,30,16,38,1.00
2013,09,30,16,39,1.50
2013,09,30,16,40,3.20
2013,09,30,16,41,6.40
2013,09,30,16,42,9.70
2013,09,30,16,43,8.70
2013,09,30,16,44,8.30
2013,09,30,16,45,2.70
2013,09,30,16,46,0.90
2013,09,30,16,47,5.90
2013,09,30,16,48,4.40
2013,09,30,16,49,5.40
2013,09,30,16,50,3.10
2013,09,30,16,51,3.60
2013,09,30,16,52,7.50
2013,09,30,16,53,4.30
2013,09,30,16,54,6.00
2013,09,30,16,55,3.10
2013,09,30,16,56,3.30
2013,09,30,16,57,4.90
2013,09,30,16,58,3.50
2013,09,30,16,59,1.60
2013,09,30,17,00,5.50
2013,09,30,17,01,3.10
2013,09,30,17,02,2.10
2013,09,30,17,03,3.90
2013,09,30,17,04,6.30
2013,09,30,17,05,4.10
2013,09,30,17,06,4.30
2013,09,30,17,07,2.00
2013,09,30,17,08,1.80
2013,09,30,17,09,3.70
2013,09,30,17,10,2.30
2013,09,30,17,11,2.30
2013,09,30,17,12,0.60
2013,09,30,17,13,0.00
2013,09,30,17,14,0.00
2013,09,30,17,15,0.20
2013,09,30,17,16,0.70
2013,09,30,17,17,1.20
2013,09,30,17,18,0.40
2013,09,30,17,19,3.20
2013,09,30,17,20,4.10
2013,09,30,17,21,0.20
2013,09,30,17,22,2.50
2013,09,30,17,23,3.00
2013,09,30,17,24,2.20
2013,09,30,17,25,7.20
2013,09,30,17,26,6.60
2013,09,30,17,27,2.50
2013,09,30,17,28,4.40
2013,09,30,17,29,5.60
2013,09,30,17,30,12.80
2013,09,30,17,31,10.30
2013,09,30,17,32,7.20
2013,09,30,17,33,17.60
2013,09,30,17,34,6.70
2013,09,30,17,35,17.70
2013,09,30,17,36,11.70
2013,09,30,17,37,11.10
2013,09,30,17,38,9.70
2013,09,30,17,39,8.70
2013,09,30,17,40,5.40
2013,09,30,17,41,5.20
2013,09,30,17,42,5.30
2013,09,30,17,43,3.10
2013,09,30,17,44,7.60
2013,09,30,17,45,3.70
2013,09,30,17,46,4.30
2013,09,30,17,47,1.60
2013,09,30,17,48,2.80
2013,09,30,17,49,2.00
2013,09,30,17,50,2.30
2013,09,30,17,51,1.60
2013,09,30,17,52,1.70
2013,09,30,17,53,2.30
2013,09,30,17,54,0.10
2013,09,30,17,55,0.20
2013,09,30,17,56,0.10
2013,09,30,17,57,0.00
2013,09,30,17,58,0.00
2013,09,30,17,59,0.10
2013,09,30,18,00,0.00
2013,09,30,18,01,0.00
2013,09,30,18,02,0.00
2013,09,30,18,03,0.00
2013,09,30,18,04,0.00
2013,09,30,18,05,0.00
2013,09,30,18,06,0.00
2013,09,30,18,07,0.00
2013,09,30,18,08,0.00
2013,09,30,18,09,0.00
2013,09,30,18,10,0.00
2013,09,30,18,11,0.00
2013,09,30,18,12,0.00
2013,09,30,18,13,0.10
2013,09,30,18,14,0.00
2013,09,30,18,15,0.00
2013,09,30,18,16,0.00
2013,09,30,18,17,0.00
2013,09,30,18,18,0.10
2013,09,30,18,19,0.00
2013,09,30,18,20,0.00
2013,09,30,18,21,0.00
2013,09,30,18,22,0.00
2013,09,30,18,23,0.00
2013,09,30,18,24,0.00
2013,09,30,18,25,0.00
2013,09,30,18,26,0.00
2013,09,30,18,27,0.00
2013,09,30,18,28,0.00
2013,09,30,18,29,0.10
2013,09,30,18,30,0.00
2013,09,30,18,31,0.00
2013,09,30,18,32,0.00
2013,09,30,18,33,0.00
2013,09,30,18,34,0.10
2013,09,30,18,35,1.60
2013,09,30,18,36,5.70
2013,09,30,18,37,2.90
2013,09,30,18,38,3.70
2013,09,30,18,39,0.10
2013,09,30,18,40,1.30
2013,09,30,18,41,1.10
2013,09,30,18,42,0.00
2013,09,30,18,43,1.80
2013,09,30,18,44,2.30
2013,09,30,18,45,0.00
2013,09,30,18,46,0.10
2013,09,30,18,47,0.00
2013,09,30,18,48,0.00
2013,09,30,18,49,0.00
2013,09,30,18,50,0.00
2013,09,30,18,51,0.00
2013,09,30,18,52,0.00
2013,09,30,18,53,0.00
2013,09,30,18,54,0.00
2013,09,30,18,55,0.00
2013,09,30,18,56,0.00
2013,09,30,18,57,0.00
2013,09,30,18,58,0.00
2013,09,30,18,59,0.00
2013,09,30,19,00,0.00
2013,09,30,19,01,0.00
2013,09,30,19,02,0.00
2013,09,30,19,03,0.00
2013,09,30,19,04,0.00
2013,09,30,19,05,0.00
2013,09,30,19,06,0.00
2013,09,30,19,07,0.00
2013,09,30,19,08,0.00
2013,09,30,19,09,0.00
2013,09,30,19,10,0.00
2013,09,30,19,11,0.00
2013,09,30,19,12,0.00
2013,09,30,19,13,0.00
2013,09,30,19,14,0.00
2013,09,30,19,15,0.00
2013,09,30,19,16,0.00
2013,09,30,19,17,0.00
2013,09,30,19,18,0.00
2013,09,30,19,19,0.00
2013,09,30,19,20,0.00
2013,09,30,19,21,0.00
2013,09,30,19,22,0.00
2013,09,30,19,23,0.00
2013,09,30,19,24,0.00
2013,09,30,19,25,0.10
2013,09,30,19,26,0.10
2013,09,30,19,27,0.00
2013,09,30,19,28,0.00
2013,09,30,19,29,0.00
2013,09,30,19,30,0.00
2013,09,30,19,31,0.00
2013,09,30,19,32,0.60
2013,09,30,19,33,0.00
2013,09,30,19,34,0.00
2013,09,30,19,35,0.10
2013,09,30,19,36,0.10
2013,09,30,19,37,0.00
2013,09,30,19,38,0.00
2013,09,30,19,39,0.00
2013,09,30,19,40,0.00
2013,09,30,19,41,0.00
2013,09,30,19,42,0.00
2013,09,30,19,43,0.00
2013,09,30,19,44,0.00
2013,09,30,19,45,0.10
2013,09,30,19,46,1.90
2013,09,30,19,47,0.50
2013,09,30,19,48,0.00
2013,09,30,19,49,0.50
2013,09,30,19,50,0.90
2013,09,30,19,51,0.00
2013,09,30,19,52,0.00
2013,09,30,19,53,0.00
2013,09,30,19,54,0.60
2013,09,30,19,55,2.50
2013,09,30,19,56,0.00
2013,09,30,19,57,0.00
2013,09,30,19,58,0.40
2013,09,30,19,59,0.00
2013,09,30,20,00,0.10
2013,09,30,20,01,0.00
2013,09,30,20,02,0.00
2013,09,30,20,03,0.00
2013,09,30,20,04,0.00
2013,09,30,20,05,0.00
2013,09,30,20,06,0.20
2013,09,30,20,07,1.90
2013,09,30,20,08,6.90
2013,09,30,20,09,7.80
2013,09,30,20,10,6.50
2013,09,30,20,11,7.50
2013,09,30,20,12,8.20
2013,09,30,20,13,1.10
2013,09,30,20,14,5.50
2013,09,30,20,15,6.40
2013,09,30,20,16,5.20
2013,09,30,20,17,5.50
2013,09,30,20,18,6.00
2013,09,30,20,19,2.00
2013,09,30,20,20,3.50
2013,09,30,20,21,5.20
2013,09,30,20,22,4.40
2013,09,30,20,23,3.20
2013,09,30,20,24,3.50
2013,09,30,20,25,2.70
2013,09,30,20,26,2.20
2013,09,30,20,27,9.20
2013,09,30,20,28,3.90
2013,09,30,20,29,3.60
2013,09,30,20,30,4.00
2013,09,30,20,31,6.50
2013,09,30,20,32,6.00
2013,09,30,20,33,3.80
2013,09,30,20,34,4.80
2013,09,30,20,35,3.60
2013,09,30,20,36,3.50
2013,09,30,20,37,4.20
2013,09,30,20,38,4.30
2013,09,30,20,39,2.70
2013,09,30,20,40,4.70
2013,09,30,20,41,5.30
2013,09,30,20,42,3.20
2013,09,30,20,43,5.10
2013,09,30,20,44,4.30
2013,09,30,20,45,4.30
2013,09,30,20,46,3.00
2013,09,30,20,47,2.50
2013,09,30,20,48,1.40
2013,09,30,20,49,2.40
2013,09,30,20,50,3.20
2013,09,30,20,51,5.20
2013,09,30,20,52,5.00
2013,09,30,20,53,4.20
2013,09,30,20,54,2.50
2013,09,30,20,55,6.70
2013,09,30,20,56,2.50
2013,09,30,20,57,2.70
2013,09,30,20,58,3.90
2013,09,30,20,59,2.90
2013,09,30,21,00,2.50
2013,09,30,21,01,2.70
2013,09,30,21,02,1.30
2013,09,30,21,03,0.60
2013,09,30,21,04,0.50
2013,09,30,21,05,0.30
2013,09,30,21,06,0.70
2013,09,30,21,07,1.00
2013,09,30,21,08,3.70
2013,09,30,21,09,3.90
2013,09,30,21,10,1.50
2013,09,30,21,11,0.80
2013,09,30,21,12,0.20
2013,09,30,21,13,2.10
2013,09,30,21,14,1.60
2013,09,30,21,15,2.20
2013,09,30,21,16,3.70
2013,09,30,21,17,7.20
2013,09,30,21,18,6.00
2013,09,30,21,19,8.00
2013,09,30,21,20,3.60
2013,09,30,21,21,1.00
2013,09,30,21,22,2.70
2013,09,30,21,23,5.20
2013,09,30,21,24,5.10